Time,TemperatureF,DewpointF,PressureIn,WindDirection,WindDirectionDegrees,WindSpeedMPH,WindSpeedGustMPH,Humidity,HourlyPrecipIn,Conditions,Clouds,dailyrainin,SoftwareType,DateUTC
2013-01-08 00:00:00,43.8,43.3,30.21,WNW,297,0.0,0.0,98,0.00,,---,0.11,VWS V14.01,2013-01-08 08:00:00,
2013-01-08 00:05:00,43.8,43.3,30.21,WNW,297,0.0,0.0,98,0.00,,---,0.00,VWS V14.01,2013-01-08 08:05:00,
2013-01-08 00:10:00,43.7,43.2,30.21,WNW,297,0.0,0.0,98,0.00,,---,0.00,VWS V14.01,2013-01-08 08:10:00,
2013-01-08 00:15:00,43.7,43.2,30.21,WNW,297,0.0,0.0,98,0.00,,---,0.00,VWS V14.01,2013-01-08 08:15:00,
2013-01-08 00:20:00,43.7,43.2,30.20,WNW,297,0.0,2.2,98,0.00,,---,0.00,VWS V14.01,2013-01-08 08:20:00,
2013-01-08 00:25:00,43.7,43.2,30.21,WNW,297,0.0,2.2,98,0.00,,---,0.00,VWS V14.01,2013-01-08 08:25:00,
2013-01-08 00:30:00,43.7,43.2,30.20,WNW,297,0.0,0.0,98,0.00,,---,0.00,VWS V14.01,2013-01-08 08:30:00,
2013-01-08 00:35:00,43.7,43.2,30.20,WNW,297,0.0,0.0,98,0.00,,---,0.00,VWS V14.01,2013-01-08 08:35:00,
2013-01-08 00:40:00,43.7,43.2,30.21,WNW,297,0.0,0.0,98,0.00,,---,0.00,VWS V14.01,2013-01-08 08:40:00,
2013-01-08 00:45:00,43.7,43.2,30.20,WNW,297,0.0,2.2,98,0.00,,---,0.00,VWS V14.01,2013-01-08 08:45:00,
2013-01-08 00:50:00,43.7,43.4,30.20,WNW,297,0.0,0.0,99,0.00,,---,0.00,VWS V14.01,2013-01-08 08:50:00,
2013-01-08 00:55:00,43.7,43.4,30.20,WNW,297,0.0,2.2,99,0.00,,---,0.00,VWS V14.01,2013-01-08 08:55:00,
2013-01-08 01:00:00,43.7,43.4,30.20,WNW,297,0.0,0.0,99,0.00,,---,0.00,VWS V14.01,2013-01-08 09:00:00,
2013-01-08 01:05:00,43.7,43.4,30.20,WNW,297,0.0,0.0,99,0.00,,---,0.00,VWS V14.01,2013-01-08 09:05:00,
2013-01-08 01:10:00,43.7,43.4,30.21,WNW,297,0.0,0.0,99,0.00,,---,0.00,VWS V14.01,2013-01-08 09:10:00,
2013-01-08 01:15:00,43.7,43.4,30.20,WNW,297,0.0,0.0,99,0.00,,---,0.00,VWS V14.01,2013-01-08 09:15:00,
2013-01-08 01:20:00,43.7,43.2,30.20,WNW,297,0.0,0.0,98,0.00,,---,0.00,VWS V14.01,2013-01-08 09:20:00,
2013-01-08 01:25:00,43.7,43.4,30.20,WNW,297,0.0,2.2,99,0.00,,---,0.00,VWS V14.01,2013-01-08 09:25:00,
2013-01-08 01:30:00,43.7,43.4,30.20,WNW,297,0.0,2.2,99,0.00,,---,0.00,VWS V14.01,2013-01-08 09:30:00,
2013-01-08 01:35:00,43.7,43.4,30.20,WNW,297,0.0,0.0,99,0.00,,---,0.00,VWS V14.01,2013-01-08 09:35:00,
2013-01-08 01:40:00,43.7,43.4,30.20,WNW,297,0.0,0.0,99,0.00,,---,0.00,VWS V14.01,2013-01-08 09:40:00,
2013-01-08 01:45:00,43.7,43.4,30.20,WNW,297,0.0,0.0,99,0.00,,---,0.00,VWS V14.01,2013-01-08 09:45:00,
2013-01-08 01:50:00,43.7,43.4,30.20,WNW,297,0.0,0.0,99,0.00,,---,0.00,VWS V14.01,2013-01-08 09:50:00,
2013-01-08 01:55:00,43.7,43.4,30.20,WNW,297,0.0,0.0,99,0.00,,---,0.00,VWS V14.01,2013-01-08 09:55:00,
2013-01-08 02:00:00,43.7,43.4,30.20,WNW,297,0.0,0.0,99,0.00,,---,0.00,VWS V14.01,2013-01-08 10:00:00,
2013-01-08 02:06:00,43.7,43.4,30.20,WNW,297,0.0,0.0,99,0.00,,---,0.00,VWS V14.01,2013-01-08 10:06:00,
2013-01-08 02:11:00,43.7,43.4,30.20,WNW,297,0.0,0.0,99,0.00,,---,0.00,VWS V14.01,2013-01-08 10:11:00,
2013-01-08 02:16:00,43.7,43.4,30.20,WNW,297,0.0,0.0,99,0.00,,---,0.00,VWS V14.01,2013-01-08 10:16:00,
2013-01-08 02:21:00,43.7,43.4,30.19,WNW,297,0.0,0.0,99,0.00,,---,0.00,VWS V14.01,2013-01-08 10:21:00,
2013-01-08 02:26:00,43.7,43.4,30.19,WNW,297,0.0,0.0,99,0.00,,---,0.00,VWS V14.01,2013-01-08 10:26:00,
2013-01-08 02:31:00,43.7,43.4,30.19,WNW,297,0.0,0.0,99,0.00,,---,0.00,VWS V14.01,2013-01-08 10:31:00,
2013-01-08 02:36:00,43.7,43.4,30.19,WNW,297,0.0,0.0,99,0.00,,---,0.00,VWS V14.01,2013-01-08 10:36:00,
2013-01-08 02:41:00,43.7,43.4,30.19,WNW,297,0.0,0.0,99,0.00,,---,0.00,VWS V14.01,2013-01-08 10:41:00,
2013-01-08 02:46:00,43.7,43.4,30.19,WNW,297,0.0,0.0,99,0.00,,---,0.00,VWS V14.01,2013-01-08 10:46:00,
2013-01-08 02:51:00,43.7,43.4,30.18,WNW,297,0.0,0.0,99,0.00,,---,0.00,VWS V14.01,2013-01-08 10:51:00,
2013-01-08 02:56:00,43.7,43.4,30.18,WNW,297,0.0,0.0,99,0.00,,---,0.00,VWS V14.01,2013-01-08 10:56:00,
2013-01-08 03:01:00,43.7,43.4,30.18,WNW,297,0.0,0.0,99,0.00,,---,0.00,VWS V14.01,2013-01-08 11:01:00,
2013-01-08 03:06:00,43.7,43.4,30.17,WNW,297,0.0,0.0,99,0.00,,---,0.00,VWS V14.01,2013-01-08 11:06:00,
2013-01-08 03:11:00,43.7,43.4,30.17,WNW,297,0.0,2.2,99,0.00,,---,0.00,VWS V14.01,2013-01-08 11:11:00,
2013-01-08 03:16:00,43.8,43.5,30.16,WNW,297,0.0,2.2,99,0.00,,---,0.00,VWS V14.01,2013-01-08 11:16:00,
2013-01-08 03:21:00,43.8,43.5,30.17,WNW,297,0.0,0.0,99,0.00,,---,0.00,VWS V14.01,2013-01-08 11:21:00,
2013-01-08 03:26:00,43.7,43.4,30.16,WNW,297,0.0,0.0,99,0.00,,---,0.00,VWS V14.01,2013-01-08 11:26:00,
2013-01-08 03:31:00,43.8,43.5,30.16,WNW,297,0.0,0.0,99,0.00,,---,0.00,VWS V14.01,2013-01-08 11:31:00,
2013-01-08 03:36:00,43.8,43.5,30.16,WNW,297,0.0,0.0,99,0.00,,---,0.00,VWS V14.01,2013-01-08 11:36:00,
2013-01-08 03:41:00,43.8,43.5,30.16,WNW,297,0.0,0.0,99,0.00,,---,0.00,VWS V14.01,2013-01-08 11:41:00,
2013-01-08 03:46:00,43.8,43.5,30.16,WNW,297,0.0,0.0,99,0.00,,---,0.00,VWS V14.01,2013-01-08 11:46:00,
2013-01-08 03:51:00,43.8,43.5,30.16,WNW,297,0.0,2.2,99,0.00,,---,0.00,VWS V14.01,2013-01-08 11:51:00,
2013-01-08 03:56:00,43.8,43.5,30.16,WNW,297,0.0,2.2,99,0.00,,---,0.00,VWS V14.01,2013-01-08 11:56:00,
2013-01-08 04:01:00,43.8,43.5,30.16,WNW,297,0.0,0.0,99,0.00,,---,0.00,VWS V14.01,2013-01-08 12:01:00,
2013-01-08 04:06:00,43.8,43.5,30.16,WNW,297,0.0,0.0,99,0.01,,---,0.01,VWS V14.01,2013-01-08 12:06:00,
2013-01-08 04:11:00,43.8,43.5,30.15,WNW,297,0.0,0.0,99,0.01,,---,0.01,VWS V14.01,2013-01-08 12:11:00,
2013-01-08 04:16:00,43.8,43.5,30.15,WNW,297,0.0,2.2,99,0.01,,---,0.01,VWS V14.01,2013-01-08 12:16:00,
2013-01-08 04:21:00,43.9,43.6,30.15,WNW,297,0.0,0.0,99,0.01,,---,0.01,VWS V14.01,2013-01-08 12:21:00,
2013-01-08 04:26:00,43.9,43.6,30.15,WNW,297,0.0,0.0,99,0.01,,---,0.01,VWS V14.01,2013-01-08 12:26:00,
2013-01-08 04:31:00,44.0,43.7,30.14,WNW,297,0.0,0.0,99,0.01,,---,0.01,VWS V14.01,2013-01-08 12:31:00,
2013-01-08 04:36:00,44.0,43.7,30.13,WNW,297,0.0,0.0,99,0.01,,---,0.01,VWS V14.01,2013-01-08 12:36:00,
2013-01-08 04:41:00,44.0,43.7,30.13,WNW,297,0.0,2.2,99,0.02,,---,0.02,VWS V14.01,2013-01-08 12:41:00,
2013-01-08 04:46:00,44.0,43.7,30.13,WNW,297,0.0,0.0,99,0.02,,---,0.02,VWS V14.01,2013-01-08 12:46:00,
2013-01-08 04:51:00,44.0,43.7,30.12,WNW,297,0.0,0.0,99,0.02,,---,0.02,VWS V14.01,2013-01-08 12:51:00,
2013-01-08 04:56:00,44.1,43.8,30.13,WNW,297,0.0,2.2,99,0.02,,---,0.02,VWS V14.01,2013-01-08 12:56:00,
2013-01-08 05:01:00,44.1,43.8,30.12,WNW,297,0.0,0.0,99,0.02,,---,0.02,VWS V14.01,2013-01-08 13:01:00,
2013-01-08 05:06:00,44.1,43.8,30.12,WNW,297,0.0,0.0,99,0.02,,---,0.02,VWS V14.01,2013-01-08 13:06:00,
2013-01-08 05:11:00,44.1,43.8,30.11,WNW,297,0.0,0.0,99,0.01,,---,0.02,VWS V14.01,2013-01-08 13:11:00,
2013-01-08 05:16:00,44.2,43.9,30.11,WNW,297,0.0,0.0,99,0.01,,---,0.02,VWS V14.01,2013-01-08 13:16:00,
2013-01-08 05:22:00,44.2,43.9,30.11,WNW,297,0.0,2.2,99,0.01,,---,0.02,VWS V14.01,2013-01-08 13:22:00,
2013-01-08 05:27:00,44.2,43.9,30.11,WNW,297,0.0,2.2,99,0.01,,---,0.02,VWS V14.01,2013-01-08 13:27:00,
2013-01-08 05:32:00,44.2,43.9,30.11,WNW,297,0.0,2.2,99,0.01,,---,0.02,VWS V14.01,2013-01-08 13:32:00,
2013-01-08 05:37:00,44.3,44.0,30.10,WNW,297,0.0,2.2,99,0.01,,---,0.02,VWS V14.01,2013-01-08 13:37:00,
2013-01-08 05:42:00,44.4,44.1,30.10,WNW,301,2.2,2.2,99,0.01,,---,0.02,VWS V14.01,2013-01-08 13:42:00,
2013-01-08 05:47:00,44.5,44.2,30.10,WSW,252,0.0,2.2,99,0.00,,---,0.02,VWS V14.01,2013-01-08 13:47:00,
2013-01-08 05:52:00,44.7,44.4,30.09,NNW,332,2.2,8.8,99,0.00,,---,0.02,VWS V14.01,2013-01-08 13:52:00,
2013-01-08 05:57:00,44.9,44.6,30.09,South,183,4.4,4.4,99,0.00,,---,0.02,VWS V14.01,2013-01-08 13:57:00,
2013-01-08 06:02:00,45.1,44.8,30.09,East,97,0.0,6.6,99,0.01,,---,0.03,VWS V14.01,2013-01-08 14:02:00,
2013-01-08 06:07:00,45.3,45.0,30.09,NE,46,2.2,4.4,99,0.01,,---,0.03,VWS V14.01,2013-01-08 14:07:00,
2013-01-08 06:12:00,45.5,45.2,30.09,SSE,149,2.2,6.6,99,0.01,,---,0.03,VWS V14.01,2013-01-08 14:12:00,
2013-01-08 06:17:00,45.8,45.5,30.09,SE,132,2.2,4.4,99,0.01,,---,0.03,VWS V14.01,2013-01-08 14:17:00,
2013-01-08 06:22:00,46.0,45.7,30.09,NNE,14,2.2,4.4,99,0.01,,---,0.03,VWS V14.01,2013-01-08 14:22:00,
2013-01-08 06:27:00,46.3,46.0,30.09,WSW,254,2.2,6.6,99,0.01,,---,0.03,VWS V14.01,2013-01-08 14:27:00,
2013-01-08 06:32:00,46.4,46.4,30.09,ENE,72,0.0,2.2,100,0.01,,---,0.03,VWS V14.01,2013-01-08 14:32:00,
2013-01-08 06:37:00,46.5,46.5,30.08,NNW,342,2.2,6.6,100,0.01,,---,0.03,VWS V14.01,2013-01-08 14:37:00,
2013-01-08 06:42:00,46.7,46.7,30.08,WSW,253,2.2,11.0,100,0.01,,---,0.03,VWS V14.01,2013-01-08 14:42:00,
2013-01-08 06:47:00,46.8,46.5,30.08,WNW,290,0.0,2.2,99,0.01,,---,0.03,VWS V14.01,2013-01-08 14:47:00,
2013-01-08 06:52:00,46.9,46.6,30.08,NNW,341,0.0,2.2,99,0.01,,---,0.03,VWS V14.01,2013-01-08 14:52:00,
2013-01-08 06:57:00,46.9,46.6,30.08,ESE,110,2.2,2.2,99,0.01,,---,0.03,VWS V14.01,2013-01-08 14:57:00,
2013-01-08 07:02:00,47.0,47.0,30.08,ENE,77,2.2,2.2,100,0.00,,---,0.03,VWS V14.01,2013-01-08 15:02:00,
2013-01-08 07:07:00,47.0,47.0,30.08,North,11,4.4,4.4,100,0.00,,---,0.03,VWS V14.01,2013-01-08 15:07:00,
2013-01-08 07:12:00,47.1,47.1,30.08,North,360,2.2,2.2,100,0.00,,---,0.03,VWS V14.01,2013-01-08 15:12:00,
2013-01-08 07:17:00,47.1,47.1,30.08,NE,38,2.2,2.2,100,0.00,,---,0.03,VWS V14.01,2013-01-08 15:17:00,
2013-01-08 07:22:00,47.1,47.1,30.08,NNE,23,4.4,4.4,100,0.00,,---,0.03,VWS V14.01,2013-01-08 15:22:00,
2013-01-08 07:27:00,47.2,47.2,30.09,West,268,2.2,2.2,100,0.01,,---,0.04,VWS V14.01,2013-01-08 15:27:00,
2013-01-08 07:32:00,47.2,47.2,30.09,NNE,14,2.2,2.2,100,0.01,,---,0.04,VWS V14.01,2013-01-08 15:32:00,
2013-01-08 07:37:00,47.2,47.2,30.09,ESE,119,2.2,4.4,100,0.01,,---,0.04,VWS V14.01,2013-01-08 15:37:00,
2013-01-08 07:42:00,47.3,47.0,30.09,WSW,242,4.4,4.4,99,0.01,,---,0.04,VWS V14.01,2013-01-08 15:42:00,
2013-01-08 07:47:00,47.3,47.0,30.09,SW,231,2.2,2.2,99,0.02,,---,0.05,VWS V14.01,2013-01-08 15:47:00,
2013-01-08 07:52:00,47.4,47.1,30.09,ENE,66,2.2,2.2,99,0.02,,---,0.05,VWS V14.01,2013-01-08 15:52:00,
2013-01-08 07:57:00,47.4,47.1,30.09,South,173,2.2,2.2,99,0.02,,---,0.05,VWS V14.01,2013-01-08 15:57:00,
2013-01-08 08:02:00,47.5,47.2,30.09,SSE,152,2.2,2.2,99,0.02,,---,0.05,VWS V14.01,2013-01-08 16:02:00,
2013-01-08 08:07:00,47.6,47.3,30.09,SE,128,6.6,8.8,99,0.02,,---,0.05,VWS V14.01,2013-01-08 16:07:00,
2013-01-08 08:12:00,47.5,47.2,30.10,NE,53,2.2,2.2,99,0.02,,---,0.05,VWS V14.01,2013-01-08 16:12:00,
2013-01-08 08:17:00,47.6,47.6,30.10,SSW,211,0.0,8.8,100,0.03,,---,0.06,VWS V14.01,2013-01-08 16:17:00,
2013-01-08 08:22:00,47.6,47.6,30.10,WNW,292,2.2,2.2,100,0.03,,---,0.06,VWS V14.01,2013-01-08 16:22:00,
2013-01-08 08:27:00,47.6,47.6,30.10,NNE,14,0.0,2.2,100,0.02,,---,0.06,VWS V14.01,2013-01-08 16:27:00,
2013-01-08 08:33:00,47.6,47.6,30.10,SE,141,4.4,4.4,100,0.02,,---,0.06,VWS V14.01,2013-01-08 16:33:00,
2013-01-08 08:38:00,47.7,47.7,30.10,SE,138,2.2,4.4,100,0.02,,---,0.06,VWS V14.01,2013-01-08 16:38:00,
2013-01-08 08:43:00,47.7,47.7,30.10,SE,131,2.2,2.2,100,0.02,,---,0.06,VWS V14.01,2013-01-08 16:43:00,
2013-01-08 08:48:00,47.7,47.7,30.10,SW,232,2.2,4.4,100,0.01,,---,0.06,VWS V14.01,2013-01-08 16:48:00,
2013-01-08 08:53:00,47.7,47.7,30.10,East,94,2.2,4.4,100,0.01,,---,0.06,VWS V14.01,2013-01-08 16:53:00,
2013-01-08 08:58:00,47.7,47.7,30.11,NNW,339,6.6,6.6,100,0.01,,---,0.06,VWS V14.01,2013-01-08 16:58:00,
2013-01-08 09:03:00,47.7,47.7,30.11,SSE,153,2.2,2.2,100,0.01,,---,0.06,VWS V14.01,2013-01-08 17:03:00,
2013-01-08 09:08:00,47.7,47.7,30.11,SE,132,6.6,6.6,100,0.01,,---,0.06,VWS V14.01,2013-01-08 17:08:00,
2013-01-08 09:13:00,47.8,47.8,30.11,SSE,161,0.0,2.2,100,0.01,,---,0.06,VWS V14.01,2013-01-08 17:13:00,
2013-01-08 09:18:00,47.8,47.8,30.11,East,98,2.2,2.2,100,0.00,,---,0.06,VWS V14.01,2013-01-08 17:18:00,
2013-01-08 09:23:00,47.9,47.9,30.11,SSE,157,2.2,2.2,100,0.00,,---,0.06,VWS V14.01,2013-01-08 17:23:00,
2013-01-08 09:28:00,47.9,47.9,30.11,SSE,149,2.2,6.6,100,0.00,,---,0.06,VWS V14.01,2013-01-08 17:28:00,
2013-01-08 09:33:00,47.9,47.6,30.11,NE,46,0.0,0.0,99,0.00,,---,0.06,VWS V14.01,2013-01-08 17:33:00,
2013-01-08 09:38:00,47.9,47.9,30.10,SSE,157,4.4,4.4,100,0.00,,---,0.06,VWS V14.01,2013-01-08 17:38:00,
2013-01-08 09:43:00,47.9,47.6,30.10,SSW,197,4.4,11.0,99,0.00,,---,0.06,VWS V14.01,2013-01-08 17:43:00,
2013-01-08 09:48:00,48.0,48.0,30.11,South,169,0.0,7.0,99,0.00,,,0.06,weatherlink.com 1.10,2013-01-08 17:48:00,
2013-01-08 09:53:00,48.0,47.7,30.10,East,101,2.2,2.2,99,0.00,,---,0.06,VWS V14.01,2013-01-08 17:53:00,
2013-01-08 09:58:00,48.0,47.7,30.11,North,355,2.2,2.2,99,0.00,,---,0.06,VWS V14.01,2013-01-08 17:58:00,
2013-01-08 10:03:00,48.0,47.7,30.10,South,171,2.2,4.4,99,0.00,,---,0.06,VWS V14.01,2013-01-08 18:03:00,
2013-01-08 10:08:00,48.0,47.7,30.10,SSE,154,2.2,2.2,99,0.00,,---,0.06,VWS V14.01,2013-01-08 18:08:00,
2013-01-08 10:13:00,48.1,47.8,30.10,ESE,109,2.2,2.2,99,0.00,,---,0.06,VWS V14.01,2013-01-08 18:13:00,
2013-01-08 10:18:00,48.1,47.8,30.10,NE,44,4.4,4.4,99,0.00,,---,0.06,VWS V14.01,2013-01-08 18:18:00,
2013-01-08 10:23:00,48.2,47.9,30.10,SE,144,2.2,2.2,99,0.00,,---,0.06,VWS V14.01,2013-01-08 18:23:00,
2013-01-08 10:28:00,48.3,48.0,30.10,ESE,118,2.2,2.2,99,0.00,,---,0.06,VWS V14.01,2013-01-08 18:28:00,
2013-01-08 10:33:00,48.4,48.1,30.10,NNE,14,0.0,4.4,99,0.00,,---,0.06,VWS V14.01,2013-01-08 18:33:00,
2013-01-08 10:38:00,48.5,48.2,30.10,East,88,2.2,2.2,99,0.00,,---,0.06,VWS V14.01,2013-01-08 18:38:00,
2013-01-08 10:43:00,48.6,48.3,30.10,ESE,111,2.2,2.2,99,0.00,,---,0.06,VWS V14.01,2013-01-08 18:43:00,
2013-01-08 10:48:00,48.6,48.3,30.10,ESE,113,2.2,2.2,99,0.00,,---,0.06,VWS V14.01,2013-01-08 18:48:00,
2013-01-08 10:53:00,48.7,48.4,30.10,ESE,117,4.4,4.4,99,0.00,,---,0.06,VWS V14.01,2013-01-08 18:53:00,
2013-01-08 10:58:00,48.8,48.5,30.10,SSE,161,0.0,2.2,99,0.00,,---,0.06,VWS V14.01,2013-01-08 18:58:00,
2013-01-08 11:03:00,48.8,48.5,30.10,SSE,167,2.2,2.2,99,0.00,,---,0.06,VWS V14.01,2013-01-08 19:03:00,
2013-01-08 11:08:00,49.0,48.7,30.09,NNW,328,6.6,6.6,99,0.00,,---,0.06,VWS V14.01,2013-01-08 19:08:00,
2013-01-08 11:13:00,49.0,48.7,30.10,NNW,344,0.0,2.2,99,0.00,,---,0.06,VWS V14.01,2013-01-08 19:13:00,
2013-01-08 11:18:00,49.1,48.8,30.09,SW,219,4.4,6.6,99,0.00,,---,0.06,VWS V14.01,2013-01-08 19:18:00,
2013-01-08 11:23:00,49.2,48.9,30.09,SE,141,0.0,2.2,99,0.00,,---,0.06,VWS V14.01,2013-01-08 19:23:00,
2013-01-08 11:28:00,49.2,48.9,30.09,ESE,116,4.4,6.6,99,0.00,,---,0.06,VWS V14.01,2013-01-08 19:28:00,
2013-01-08 11:33:00,49.4,48.9,30.09,West,267,2.2,4.4,98,0.00,,---,0.06,VWS V14.01,2013-01-08 19:33:00,
2013-01-08 11:38:00,49.5,49.0,30.08,NE,35,2.2,4.4,98,0.00,,---,0.06,VWS V14.01,2013-01-08 19:38:00,
2013-01-08 11:43:00,49.6,49.1,30.08,SE,124,0.0,2.2,98,0.00,,---,0.06,VWS V14.01,2013-01-08 19:43:00,
2013-01-08 11:48:00,49.7,49.2,30.08,SE,144,0.0,4.4,98,0.00,,---,0.06,VWS V14.01,2013-01-08 19:48:00,
2013-01-08 11:53:00,49.9,49.4,30.08,SSE,159,2.2,4.4,98,0.00,,---,0.06,VWS V14.01,2013-01-08 19:53:00,
2013-01-08 11:58:00,49.9,49.4,30.08,East,101,4.4,4.4,98,0.00,,---,0.06,VWS V14.01,2013-01-08 19:58:00,
2013-01-08 12:03:00,50.0,49.5,30.08,NE,43,4.4,4.4,98,0.00,,---,0.06,VWS V14.01,2013-01-08 20:03:00,
2013-01-08 12:08:00,50.0,49.5,30.08,NNE,31,2.2,4.4,98,0.00,,---,0.06,VWS V14.01,2013-01-08 20:08:00,
2013-01-08 12:13:00,50.0,49.5,30.08,North,351,6.6,6.6,98,0.00,,---,0.06,VWS V14.01,2013-01-08 20:13:00,
2013-01-08 12:18:00,50.1,49.3,30.08,East,80,4.4,4.4,97,0.00,,---,0.06,VWS V14.01,2013-01-08 20:18:00,
2013-01-08 12:23:00,50.1,49.3,30.07,WNW,286,4.4,4.4,97,0.00,,---,0.06,VWS V14.01,2013-01-08 20:23:00,
2013-01-08 12:28:00,50.1,49.3,30.07,West,280,2.2,4.4,97,0.00,,---,0.06,VWS V14.01,2013-01-08 20:28:00,
2013-01-08 12:33:00,50.2,49.7,30.07,WSW,248,6.6,6.6,98,0.00,,---,0.06,VWS V14.01,2013-01-08 20:33:00,
2013-01-08 12:39:00,50.4,49.9,30.07,North,360,4.4,4.4,98,0.00,,---,0.06,VWS V14.01,2013-01-08 20:39:00,
2013-01-08 12:44:00,50.6,49.8,30.07,WNW,283,0.0,4.4,97,0.00,,---,0.06,VWS V14.01,2013-01-08 20:44:00,
2013-01-08 12:49:00,50.6,49.8,30.06,SE,134,6.6,6.6,97,0.00,,---,0.06,VWS V14.01,2013-01-08 20:49:00,
2013-01-08 12:54:00,50.7,49.9,30.06,North,9,4.4,4.4,97,0.00,,---,0.06,VWS V14.01,2013-01-08 20:54:00,
2013-01-08 12:59:00,50.8,50.0,30.06,WNW,285,0.0,11.0,97,0.00,,---,0.06,VWS V14.01,2013-01-08 20:59:00,
2013-01-08 13:04:00,51.3,50.2,30.06,North,11,6.6,6.6,96,0.00,,---,0.06,VWS V14.01,2013-01-08 21:04:00,
2013-01-08 13:09:00,51.5,50.1,30.06,West,279,4.4,8.8,95,0.00,,---,0.06,VWS V14.01,2013-01-08 21:09:00,
2013-01-08 13:14:00,51.6,50.2,30.05,South,181,4.4,6.6,95,0.00,,---,0.06,VWS V14.01,2013-01-08 21:14:00,
2013-01-08 13:19:00,51.7,50.3,30.05,NNW,334,8.8,13.2,95,0.00,,---,0.06,VWS V14.01,2013-01-08 21:19:00,
2013-01-08 13:24:00,51.8,50.4,30.05,WNW,291,4.4,4.4,95,0.00,,---,0.06,VWS V14.01,2013-01-08 21:24:00,
2013-01-08 13:29:00,51.9,50.5,30.05,ESE,108,2.2,4.4,95,0.00,,---,0.06,VWS V14.01,2013-01-08 21:29:00,
2013-01-08 13:34:00,51.9,50.5,30.05,WNW,292,2.2,4.4,95,0.00,,---,0.06,VWS V14.01,2013-01-08 21:34:00,
2013-01-08 13:39:00,52.2,50.8,30.05,NE,37,2.2,13.2,95,0.00,,---,0.06,VWS V14.01,2013-01-08 21:39:00,
2013-01-08 13:44:00,52.2,50.5,30.05,South,186,2.2,8.8,94,0.00,,---,0.06,VWS V14.01,2013-01-08 21:44:00,
2013-01-08 13:49:00,52.2,50.5,30.05,East,97,2.2,6.6,94,0.00,,---,0.06,VWS V14.01,2013-01-08 21:49:00,
2013-01-08 13:54:00,52.1,50.4,30.05,SSE,167,6.6,6.6,94,0.00,,---,0.06,VWS V14.01,2013-01-08 21:54:00,
2013-01-08 13:59:00,52.3,50.6,30.04,ESE,119,2.2,11.0,94,0.00,,---,0.06,VWS V14.01,2013-01-08 21:59:00,
2013-01-08 14:04:00,52.1,50.4,30.04,SSW,209,2.2,4.4,94,0.00,,---,0.06,VWS V14.01,2013-01-08 22:04:00,
2013-01-08 14:09:00,52.1,50.4,30.05,WNW,300,2.2,11.0,94,0.00,,---,0.06,VWS V14.01,2013-01-08 22:09:00,
2013-01-08 14:14:00,52.0,50.6,30.04,WSW,254,8.8,11.0,95,0.00,,---,0.06,VWS V14.01,2013-01-08 22:14:00,
2013-01-08 14:19:00,52.0,50.3,30.05,SSE,161,2.2,15.4,94,0.00,,---,0.06,VWS V14.01,2013-01-08 22:19:00,
2013-01-08 14:24:00,52.1,50.1,30.04,ESE,115,2.2,19.8,93,0.00,,---,0.06,VWS V14.01,2013-01-08 22:24:00,
2013-01-08 14:29:00,52.2,50.2,30.04,ESE,114,4.4,8.8,93,0.00,,---,0.06,VWS V14.01,2013-01-08 22:29:00,
2013-01-08 14:34:00,52.0,50.3,30.03,ESE,121,2.2,8.8,94,0.00,,---,0.06,VWS V14.01,2013-01-08 22:34:00,
2013-01-08 14:39:00,52.0,50.0,30.03,South,180,2.2,8.8,93,0.00,,---,0.06,VWS V14.01,2013-01-08 22:39:00,
2013-01-08 14:44:00,52.0,50.0,30.03,NE,38,8.8,15.4,93,0.00,,---,0.06,VWS V14.01,2013-01-08 22:44:00,
2013-01-08 14:49:00,52.0,50.0,30.03,SSE,148,2.2,8.8,93,0.00,,---,0.06,VWS V14.01,2013-01-08 22:49:00,
2013-01-08 14:54:00,52.0,50.0,30.03,SSE,163,2.2,4.4,93,0.00,,---,0.06,VWS V14.01,2013-01-08 22:54:00,
2013-01-08 14:59:00,52.0,50.0,30.03,West,276,2.2,6.6,93,0.00,,---,0.06,VWS V14.01,2013-01-08 22:59:00,
2013-01-08 15:04:00,52.0,50.0,30.03,North,5,6.6,8.8,93,0.00,,---,0.06,VWS V14.01,2013-01-08 23:04:00,
2013-01-08 15:09:00,52.0,49.8,30.03,WSW,242,2.2,8.8,92,0.00,,---,0.06,VWS V14.01,2013-01-08 23:09:00,
2013-01-08 15:14:00,52.0,50.0,30.04,ESE,117,2.2,6.6,93,0.00,,---,0.06,VWS V14.01,2013-01-08 23:14:00,
2013-01-08 15:19:00,52.0,50.0,30.03,SE,126,2.2,6.6,93,0.00,,---,0.06,VWS V14.01,2013-01-08 23:19:00,
2013-01-08 15:24:00,52.0,50.0,30.04,North,5,8.8,11.0,93,0.00,,---,0.06,VWS V14.01,2013-01-08 23:24:00,
2013-01-08 15:29:00,52.0,49.8,30.03,WSW,256,4.4,6.6,92,0.00,,---,0.06,VWS V14.01,2013-01-08 23:29:00,
2013-01-08 15:34:00,52.0,50.0,30.03,South,169,6.6,6.6,93,0.00,,---,0.06,VWS V14.01,2013-01-08 23:34:00,
2013-01-08 15:39:00,52.0,49.8,30.03,SSE,148,2.2,11.0,92,0.00,,---,0.06,VWS V14.01,2013-01-08 23:39:00,
2013-01-08 15:44:00,52.0,49.8,30.03,South,169,4.4,13.2,92,0.00,,---,0.06,VWS V14.01,2013-01-08 23:44:00,
2013-01-08 15:49:00,52.0,49.8,30.03,East,96,2.2,22.0,92,0.00,,---,0.06,VWS V14.01,2013-01-08 23:49:00,
2013-01-08 15:54:00,52.0,49.8,30.03,North,355,2.2,6.6,92,0.00,,---,0.06,VWS V14.01,2013-01-08 23:54:00,
2013-01-08 16:00:00,52.0,49.8,30.03,South,190,4.4,6.6,92,0.00,,---,0.06,VWS V14.01,2013-01-09 00:00:00,
2013-01-08 16:05:00,51.9,49.4,30.03,WSW,247,2.2,6.6,91,0.00,,---,0.06,VWS V14.01,2013-01-09 00:05:00,
2013-01-08 16:10:00,51.9,49.4,30.02,WSW,258,6.6,6.6,91,0.00,,---,0.06,VWS V14.01,2013-01-09 00:10:00,
2013-01-08 16:15:00,51.9,49.7,30.02,South,185,4.4,13.2,92,0.00,,---,0.06,VWS V14.01,2013-01-09 00:15:00,
2013-01-08 16:20:00,51.9,49.7,30.02,ESE,114,4.4,6.6,92,0.00,,---,0.06,VWS V14.01,2013-01-09 00:20:00,
2013-01-08 16:25:00,51.9,49.7,30.02,WNW,298,4.4,11.0,92,0.00,,---,0.06,VWS V14.01,2013-01-09 00:25:00,
2013-01-08 16:30:00,51.8,49.5,30.02,NW,305,2.2,6.6,92,0.00,,---,0.06,VWS V14.01,2013-01-09 00:30:00,
2013-01-08 16:35:00,51.8,49.5,30.02,NW,304,2.2,4.4,92,0.00,,---,0.06,VWS V14.01,2013-01-09 00:35:00,
2013-01-08 16:40:00,51.7,49.5,30.02,ESE,117,2.2,6.6,92,0.00,,---,0.06,VWS V14.01,2013-01-09 00:40:00,
2013-01-08 16:45:00,51.7,49.5,30.02,NW,310,4.4,6.6,92,0.00,,---,0.06,VWS V14.01,2013-01-09 00:45:00,
2013-01-08 16:50:00,51.7,49.5,30.01,NE,46,8.8,8.8,92,0.00,,---,0.06,VWS V14.01,2013-01-09 00:50:00,
2013-01-08 16:55:00,51.8,49.5,30.01,SSE,158,2.2,4.4,92,0.00,,---,0.06,VWS V14.01,2013-01-09 00:55:00,
2013-01-08 17:00:00,51.7,49.5,30.01,NNW,346,2.2,11.0,92,0.00,,---,0.06,VWS V14.01,2013-01-09 01:00:00,
2013-01-08 17:05:00,51.8,49.5,30.01,ESE,118,2.2,11.0,92,0.00,,---,0.06,VWS V14.01,2013-01-09 01:05:00,
2013-01-08 17:10:00,51.9,49.7,30.01,SW,230,4.4,8.8,92,0.00,,---,0.06,VWS V14.01,2013-01-09 01:10:00,
2013-01-08 17:15:00,51.9,49.4,30.01,SW,231,6.6,6.6,91,0.00,,---,0.06,VWS V14.01,2013-01-09 01:15:00,
2013-01-08 17:20:00,51.9,49.7,30.01,WSW,257,6.6,8.8,92,0.00,,---,0.06,VWS V14.01,2013-01-09 01:20:00,
2013-01-08 17:25:00,51.8,49.5,30.00,SSW,196,6.6,6.6,92,0.00,,---,0.06,VWS V14.01,2013-01-09 01:25:00,
2013-01-08 17:30:00,51.7,49.5,30.00,WSW,258,4.4,11.0,92,0.00,,---,0.06,VWS V14.01,2013-01-09 01:30:00,
2013-01-08 17:35:00,51.7,49.8,30.00,North,355,4.4,6.6,93,0.00,,---,0.06,VWS V14.01,2013-01-09 01:35:00,
2013-01-08 17:40:00,51.6,49.7,30.00,SE,134,4.4,6.6,93,0.00,,---,0.06,VWS V14.01,2013-01-09 01:40:00,
2013-01-08 17:45:00,51.5,49.5,30.00,SSE,153,8.8,8.8,93,0.00,,---,0.06,VWS V14.01,2013-01-09 01:45:00,
2013-01-08 17:50:00,51.4,49.5,29.99,ENE,64,2.2,6.6,93,0.00,,---,0.06,VWS V14.01,2013-01-09 01:50:00,
2013-01-08 17:55:00,51.3,49.3,29.99,NNE,32,2.2,4.4,93,0.00,,---,0.06,VWS V14.01,2013-01-09 01:55:00,
2013-01-08 18:00:00,51.2,49.2,29.99,WSW,245,4.4,8.8,93,0.00,,---,0.06,VWS V14.01,2013-01-09 02:00:00,
2013-01-08 18:05:00,51.2,49.2,29.99,NNW,338,0.0,6.6,93,0.00,,---,0.06,VWS V14.01,2013-01-09 02:05:00,
2013-01-08 18:10:00,51.1,49.2,29.99,NNW,338,2.2,8.8,93,0.00,,---,0.06,VWS V14.01,2013-01-09 02:10:00,
2013-01-08 18:15:00,51.2,49.2,29.99,South,173,4.4,6.6,93,0.00,,---,0.06,VWS V14.01,2013-01-09 02:15:00,
2013-01-08 18:20:00,51.1,49.2,29.99,NE,39,2.2,11.0,93,0.00,,---,0.06,VWS V14.01,2013-01-09 02:20:00,
2013-01-08 18:25:00,51.1,49.2,29.99,WSW,258,2.2,8.8,93,0.00,,---,0.06,VWS V14.01,2013-01-09 02:25:00,
2013-01-08 18:30:00,51.1,49.2,29.99,West,281,2.2,15.4,93,0.00,,---,0.06,VWS V14.01,2013-01-09 02:30:00,
2013-01-08 18:35:00,51.1,49.2,29.99,North,9,4.4,11.0,93,0.00,,---,0.06,VWS V14.01,2013-01-09 02:35:00,
2013-01-08 18:40:00,51.0,49.0,29.98,SW,224,2.2,8.8,93,0.00,,---,0.06,VWS V14.01,2013-01-09 02:40:00,
2013-01-08 18:45:00,51.0,49.0,29.98,SSE,158,2.2,6.6,93,0.00,,---,0.06,VWS V14.01,2013-01-09 02:45:00,
2013-01-08 18:51:00,51.0,48.8,29.98,ESE,107,2.2,4.4,92,0.00,,---,0.06,VWS V14.01,2013-01-09 02:51:00,
2013-01-08 18:56:00,51.0,49.0,29.98,NE,43,2.2,4.4,93,0.00,,---,0.06,VWS V14.01,2013-01-09 02:56:00,
2013-01-08 19:01:00,51.0,48.8,29.98,East,92,2.2,4.4,92,0.00,,---,0.06,VWS V14.01,2013-01-09 03:01:00,
2013-01-08 19:06:00,51.0,49.0,29.98,SE,129,2.2,4.4,93,0.00,,---,0.06,VWS V14.01,2013-01-09 03:06:00,
2013-01-08 19:11:00,51.0,49.0,29.98,SE,146,1.0,3.0,92,0.00,,,0.06,weatherlink.com 1.10,2013-01-09 03:11:00,
2013-01-08 19:16:00,51.1,48.9,29.97,ENE,61,0.0,2.2,92,0.00,,---,0.06,VWS V14.01,2013-01-09 03:16:00,
2013-01-08 19:21:00,51.0,48.8,29.97,South,190,2.2,6.6,92,0.00,,---,0.06,VWS V14.01,2013-01-09 03:21:00,
2013-01-08 19:26:00,51.0,48.8,29.97,SW,216,4.4,8.8,92,0.00,,---,0.06,VWS V14.01,2013-01-09 03:26:00,
2013-01-08 19:31:00,50.9,48.7,29.97,SE,140,4.4,8.8,92,0.00,,---,0.06,VWS V14.01,2013-01-09 03:31:00,
2013-01-08 19:36:00,50.9,48.7,29.97,SE,130,4.4,4.4,92,0.00,,---,0.06,VWS V14.01,2013-01-09 03:36:00,
2013-01-08 19:41:00,50.9,48.7,29.97,NE,50,2.2,4.4,92,0.00,,---,0.06,VWS V14.01,2013-01-09 03:41:00,
2013-01-08 19:46:00,50.8,48.6,29.96,South,188,0.0,4.4,92,0.00,,---,0.06,VWS V14.01,2013-01-09 03:46:00,
2013-01-08 19:51:00,50.8,48.6,29.97,ENE,61,0.0,4.4,92,0.00,,---,0.06,VWS V14.01,2013-01-09 03:51:00,
2013-01-08 19:56:00,50.8,48.6,29.96,SW,236,2.2,8.8,92,0.00,,---,0.06,VWS V14.01,2013-01-09 03:56:00,
2013-01-08 20:01:00,50.8,48.6,29.97,WSW,244,2.2,8.8,92,0.00,,---,0.06,VWS V14.01,2013-01-09 04:01:00,
2013-01-08 20:06:00,50.7,48.5,29.97,NNE,24,2.2,6.6,92,0.00,,---,0.06,VWS V14.01,2013-01-09 04:06:00,
2013-01-08 20:11:00,50.7,48.2,29.97,West,275,2.2,4.4,91,0.00,,---,0.06,VWS V14.01,2013-01-09 04:11:00,
2013-01-08 20:16:00,50.7,48.5,29.96,WNW,298,2.2,6.6,92,0.00,,---,0.06,VWS V14.01,2013-01-09 04:16:00,
2013-01-08 20:21:00,50.6,48.1,29.96,NNE,27,2.2,6.6,91,0.00,,---,0.06,VWS V14.01,2013-01-09 04:21:00,
2013-01-08 20:26:00,50.6,48.4,29.95,NNW,342,0.0,8.8,92,0.00,,---,0.06,VWS V14.01,2013-01-09 04:26:00,
2013-01-08 20:31:00,50.6,48.1,29.96,NW,311,2.2,8.8,91,0.00,,---,0.06,VWS V14.01,2013-01-09 04:31:00,
2013-01-08 20:36:00,50.5,48.3,29.96,NNW,346,2.2,6.6,92,0.00,,---,0.06,VWS V14.01,2013-01-09 04:36:00,
2013-01-08 20:41:00,50.4,48.2,29.96,NNW,347,0.0,4.4,92,0.00,,---,0.06,VWS V14.01,2013-01-09 04:41:00,
2013-01-08 20:46:00,50.4,47.9,29.96,NNW,347,0.0,2.2,91,0.00,,---,0.06,VWS V14.01,2013-01-09 04:46:00,
2013-01-08 20:51:00,50.2,47.7,29.96,NNW,347,0.0,2.2,91,0.00,,---,0.06,VWS V14.01,2013-01-09 04:51:00,
2013-01-08 20:56:00,50.1,47.6,29.95,ESE,119,2.2,6.6,91,0.00,,---,0.06,VWS V14.01,2013-01-09 04:56:00,
2013-01-08 21:00:00,50.0,47.5,29.95,ESE,113,2.2,2.2,91,0.00,,---,0.06,VWS V14.01,2013-01-09 05:00:00,
2013-01-08 21:01:00,50.0,47.5,29.95,WSW,246,0.0,2.2,91,0.00,,---,0.06,VWS V14.01,2013-01-09 05:01:00,
2013-01-08 21:06:00,49.8,47.6,29.95,South,175,0.0,4.4,92,0.00,,---,0.06,VWS V14.01,2013-01-09 05:06:00,
2013-01-08 21:11:00,49.7,47.5,29.95,South,175,0.0,2.2,92,0.00,,---,0.06,VWS V14.01,2013-01-09 05:11:00,
2013-01-08 21:16:00,49.6,47.4,29.95,WNW,303,2.2,2.2,92,0.00,,---,0.06,VWS V14.01,2013-01-09 05:16:00,
2013-01-08 21:21:00,49.5,47.3,29.95,WNW,303,0.0,2.2,92,0.00,,---,0.06,VWS V14.01,2013-01-09 05:21:00,
2013-01-08 21:26:00,49.4,47.2,29.95,WNW,303,2.2,2.2,92,0.00,,---,0.06,VWS V14.01,2013-01-09 05:26:00,
2013-01-08 21:31:00,49.2,47.0,29.95,WNW,303,2.2,2.2,92,0.00,,---,0.06,VWS V14.01,2013-01-09 05:31:00,
2013-01-08 21:36:00,49.1,46.9,29.95,NNW,348,2.2,4.4,92,0.00,,---,0.06,VWS V14.01,2013-01-09 05:36:00,
2013-01-08 21:41:00,48.9,46.7,29.95,West,275,0.0,8.8,92,0.00,,---,0.06,VWS V14.01,2013-01-09 05:41:00,
2013-01-08 21:46:00,48.8,46.9,29.95,West,275,2.2,4.4,93,0.00,,---,0.06,VWS V14.01,2013-01-09 05:46:00,
2013-01-08 21:51:00,48.7,46.8,29.94,WNW,290,2.2,2.2,93,0.00,,---,0.06,VWS V14.01,2013-01-09 05:51:00,
2013-01-08 21:56:00,48.6,46.7,29.94,WNW,290,0.0,4.4,93,0.00,,---,0.06,VWS V14.01,2013-01-09 05:56:00,
2013-01-08 22:01:00,48.5,46.9,29.94,SSW,198,0.0,4.4,94,0.00,,---,0.06,VWS V14.01,2013-01-09 06:01:00,
2013-01-08 22:06:00,48.4,46.8,29.94,SSW,197,0.0,2.2,94,0.00,,---,0.06,VWS V14.01,2013-01-09 06:06:00,
2013-01-08 22:11:00,48.4,46.8,29.94,SSW,197,2.2,2.2,94,0.00,,---,0.06,VWS V14.01,2013-01-09 06:11:00,
2013-01-08 22:16:00,48.3,46.7,29.95,NNW,332,0.0,4.4,94,0.00,,---,0.06,VWS V14.01,2013-01-09 06:16:00,
2013-01-08 22:21:00,48.3,46.7,29.94,ESE,114,4.4,4.4,94,0.00,,---,0.06,VWS V14.01,2013-01-09 06:21:00,
2013-01-08 22:26:00,48.3,46.7,29.93,ESE,117,0.0,4.4,94,0.00,,---,0.06,VWS V14.01,2013-01-09 06:26:00,
2013-01-08 22:31:00,48.4,46.8,29.93,ESE,117,0.0,2.2,94,0.00,,---,0.06,VWS V14.01,2013-01-09 06:31:00,
2013-01-08 22:36:00,48.4,46.8,29.94,SSE,155,2.2,4.4,94,0.00,,---,0.06,VWS V14.01,2013-01-09 06:36:00,
2013-01-08 22:41:00,48.5,46.9,29.93,ESE,109,2.2,4.4,94,0.00,,---,0.06,VWS V14.01,2013-01-09 06:41:00,
2013-01-08 22:46:00,48.4,46.8,29.93,ESE,109,0.0,2.2,94,0.00,,---,0.06,VWS V14.01,2013-01-09 06:46:00,
2013-01-08 22:51:00,48.4,46.5,29.92,ENE,78,2.2,4.4,93,0.00,,---,0.06,VWS V14.01,2013-01-09 06:51:00,
2013-01-08 22:56:00,48.5,46.3,29.92,SSE,163,2.2,6.6,92,0.00,,---,0.06,VWS V14.01,2013-01-09 06:56:00,
2013-01-08 23:01:00,48.6,46.7,29.93,East,83,2.2,4.4,93,0.00,,---,0.06,VWS V14.01,2013-01-09 07:01:00,
2013-01-08 23:06:00,48.6,46.7,29.93,East,82,2.2,4.4,93,0.00,,---,0.06,VWS V14.01,2013-01-09 07:06:00,
2013-01-08 23:11:00,48.6,46.7,29.92,East,82,2.2,4.4,93,0.00,,---,0.06,VWS V14.01,2013-01-09 07:11:00,
2013-01-08 23:17:00,48.7,46.8,29.93,East,84,0.0,6.6,93,0.00,,---,0.06,VWS V14.01,2013-01-09 07:17:00,
2013-01-08 23:22:00,48.7,46.8,29.92,East,84,0.0,2.2,93,0.00,,---,0.06,VWS V14.01,2013-01-09 07:22:00,
2013-01-08 23:27:00,48.6,46.7,29.92,East,84,2.2,2.2,93,0.00,,---,0.06,VWS V14.01,2013-01-09 07:27:00,
2013-01-08 23:32:00,48.6,46.7,29.92,ENE,74,2.2,8.8,93,0.00,,---,0.06,VWS V14.01,2013-01-09 07:32:00,
2013-01-08 23:37:00,48.5,46.6,29.92,ENE,63,0.0,4.4,93,0.00,,---,0.06,VWS V14.01,2013-01-09 07:37:00,
2013-01-08 23:42:00,48.5,46.6,29.93,NNE,19,0.0,4.4,93,0.00,,---,0.06,VWS V14.01,2013-01-09 07:42:00,
2013-01-08 23:47:00,48.4,46.5,29.92,NNW,343,6.6,8.8,93,0.00,,---,0.06,VWS V14.01,2013-01-09 07:47:00,
2013-01-08 23:52:00,48.5,46.6,29.92,NNW,346,2.2,6.6,93,0.00,,---,0.06,VWS V14.01,2013-01-09 07:52:00,
2013-01-08 23:57:00,48.4,46.5,29.91,SSE,167,4.4,4.4,93,0.00,,---,0.06,VWS V14.01,2013-01-09 07:57:00,